NIUSat (42766 NORAD) Tracking and Keplerian Element Data

This shows tracking and keplerian element data for the satellite.

Feedback or suggestion? Click here.




ElementValue
Catalog42766
NameNIUSat
Epoch Orbit9981
Epoch Day101.15196357
Epoch Year2019
RAAN159.1967
Inclination97.3587
Eccentricity0.0017503
Argument of Perigee100.2032
Mean Anonmoly260.1178
Mean Motion15.20963829
Decay Rate1.408E-05
L11 42766U 17036B 19101.15196357 .00001408 00000-0 66443-4 0 9991
L22 42766 97.3587 159.1967 0017503 100.2032 260.1178 15.20963829 99815

Live tracking and technical data element details for NIUSat (NORAD 42766). NIUSat can be tracked NOW for your location showing map with azimuth and elevation plus other details from your city location.

Track the satellite on the map from your city or location and see movement details for azimuth, elevation, latitude, longitude, range, height, and movement on the map or in text.







IsCatalogInMostPopularTable: catalog: 42766, numindb: 192
Update: records affected: 1



GetName: 42766 NIUSat

Hit Count: updated at: Sat, 20 Apr 2019 01:09:33 GMT